High Desert Yearling Classic - Loft Fly

Station: INVENTORY - T Race

Distance: 10 Miles

Release: 14-Jan-2023 10:45

Weather Release:    Arrival:

Wind at Release:     Wind at Arrival:

Temp at Release: °    Temp at Arrival: °

Lofts: 111

Birds: 500

Clocked: 501

Good Luck to Everyone!
Drops Pos Breeder Pigeon Name Color Sex Team Ent Arrival Speed To Win Elg Pd
1 Walker Family Racing Loft LLC - CO 22242-AU22-PUEB Ironman 2 BBWF H 1 1 11:17:29.92 541.5607 00:00:00 Yes
2 Silver Dollar Loft - CO 0028-AU22-SILV BB H 1 1 11:18:08.25 531.1203 00:00:38 Yes
3 Dean Farmer Loft - IL 65374-AU22-ARPU BB H 1 1 11:18:09.72 530.7279 00:00:40 Yes
4 Steve Beier - AZ 30855-AU22-JEDD BB H 1 1 11:18:16.37 528.9601 00:00:46 Yes
5 Gina's Loft - ID 22834-AU22-RMR BB H 1 1 11:23:31.86 456.7751 00:06:02 Yes
6 HP Loft - CA 14935-AU22-JEDD BB H 1 1 11:24:02.35 450.8293 00:06:32 Yes
7 Let's Go Brandon - OR 0492-AU22-DNT BBWF H 1 1 11:24:06.92 449.9514 00:06:37 Yes
8 2nd Chance Loft - ID 22825-AU22-RMR BC H 1 1 11:24:16.96 448.0348 00:06:47 Yes
9 Sandoval Speed Test - CA 33961-AU22-JEDD BB H 1 1 11:24:32.37 445.1245 00:07:02 Yes
10 Radd - OK 5749-AU22-ARPU 2230/41249 TB 3 BBSP H 1 1 11:24:32.86 445.0326 00:07:03 Yes
11 Transilvania Loft - NV 0536-AU22-CIMP BB H 1 1 11:25:52.63 430.5582 00:08:23 Yes
12 Deko - UT 12214-AU22-AA GRIZ H 1 1 11:26:26.12 424.7583 00:08:56 Yes
13 Reno team 20 - NV 0099-AU22-AVEF BBSP H 1 1 11:26:39.56 422.4744 00:09:10 Yes
14 Deko - UT 12212-AU22-AA DC H 1 2 11:26:40.25 422.3578 00:09:10 Yes
15 Mario Rodriguez - AZ 63631-AU22-ARPU BC H 1 1 11:26:44.92 421.5703 00:09:15 Yes
16 Mario Rodriguez - AZ 63633-AU22-ARPU BC H 1 2 11:26:50.13 420.6953 00:09:20 Yes
17 Usa4356390 - MD 6332-AU22-VITA BC H 1 1 11:26:51.74 420.4257 00:09:22 Yes
18 Venn Family Loft - WY 0054-AU22-VENN RCSP H 1 1 11:27:02.95 418.5576 00:09:33 Yes
19 Mile High - CO 6411-AU22-VITA Sunshine Speedster BB H 1 1 11:27:47.05 411.3671 00:10:17 Yes
20 Good Feathers - CO 2296-AU22-JAMA BB H 1 1 11:28:32.86 404.1548 00:11:03 Yes
21 Funny Farm Loft - CA 6105-AU22-ARC 4500/5806 BC H 1 1 11:28:59.30 400.1061 00:11:29 Yes
22 Let's Go Brandon - OR 0489-AU22-DNT BB H 1 2 11:29:03.39 399.4870 00:11:33 Yes
23 K & J Loft - OK 8605-AU22-VITA BCWF H 1 1 11:29:06.72 398.9844 00:11:37 Yes
24 Liz Fauxcahontas - OR 0145-AU22-DRCO BCWF H 1 1 11:29:27.63 395.8570 00:11:58 Yes
25 Radd - OK 5755-AU22-ARPU 42093/1144 Po 2* BCWF H 1 2 11:29:28.94 395.6627 00:11:59 Yes
26 Thao Pigeon Loft 2 - MN 1383-AU22-PURP BB H 1 1 11:29:29.99 395.5071 00:12:00 Yes
27 Bob Hilltop Family Loft - ADS - NJ 0017-AU22-ADS BCSP H 1 1 11:30:01.75 390.8578 00:12:32 Yes
28 Mario Rodriguez - AZ 63636-AU22-ARPU WHT H 1 3 11:30:17.53 388.5882 00:12:48 Yes
29 Hollywood Lou Loft - FL 0999-AU22-HOLL BC H 1 1 11:30:20.14 388.2153 00:12:50 Yes
30 Gina's Loft - ID 22820-AU22-RMR BB H 1 2 11:30:24.69 387.5670 00:12:55 Yes
31 Border Clan Scott - UT 0807-AU22-SCOT BBSP H 1 1 11:30:28.53 387.0216 00:12:59 Yes
32 K/N Loft - HI 0297-IF22-LWC RC H 1 1 11:30:31.06 386.6631 00:13:01 Yes
33 Victory Loft - ID 0573-AU22-IDA BC H 1 1 11:30:37.99 385.6844 00:13:08 Yes
34 Jolly Roger - WA 7878-AU22-LKC BBWF H 1 1 11:30:40.44 385.3396 00:13:11 Yes
35 Keyways - ID 0288-AU22-KEYW Shogun Paynter BB H 1 1 11:30:47.44 384.3578 00:13:18 Yes
36 Transilvania Loft - NV 0485-AU22-CFL BCSP H 1 2 11:30:50.05 383.9930 00:13:20 Yes
37 Gundog Loft - HI 0187-AU22-EHI BB H 1 1 11:30:58.42 382.8279 00:13:28 Yes
38 Keyways - ID 0287-AU22-KEYW 305 X 68 BB H 1 2 11:31:00.84 382.4923 00:13:31 Yes
39 Samurai - UT 2726-AU22-WFA BC H 1 1 11:31:06.11 381.7636 00:13:36 Yes
40 Spring Break Race - UT 37252-AU22-FOYS BC H 1 1 11:31:18.13 380.1118 00:13:48 Yes
41 B W Loft - ID 22352-AU22-RMR BC H 1 1 11:31:19.79 379.8848 00:13:50 Yes
42 Tim Farr - WA 2243-AU22-FARR BC H 1 1 11:31:22.14 379.5639 00:13:52 Yes
43 Border Clan Scott - UT 0808-AU22-SCOT BBSP H 1 2 11:31:40.09 377.1307 00:14:10 Yes
44 Mike Beam - KS 2877-AU22-TOP CB H 1 1 11:31:44.83 376.4934 00:14:15 Yes
45 Chen Dong Loft - NY 20793-AU22-ARPU BLK H 1 1 11:31:51.09 375.6550 00:14:21 Yes
46 Gardocky Team - CA 1006-AU22-FMT BB H 1 1 11:31:57.25 374.8336 00:14:27 Yes
47 Transilvania Loft - NV 0486-AU22-CFL BC H 1 3 11:32:10.29 373.1066 00:14:40 Yes
48 Dean Farmer Loft - IL 65373-AU22-ARPU BB H 1 2 11:32:14.91 372.4986 00:14:45 Yes
49 Tamayo Loft - SC 7695-AU22-VITA BB H 1 1 11:32:21.62 371.6190 00:14:52 Yes
50 New Year Loft - PA 2281-AU22-NEWY The RAT BB H 1 1 11:32:30.21 370.4990 00:15:00 Yes
51 Bill and Danny - UT 17031-AU22-ARPU 843/1394 BCWF H 1 1 11:32:51.39 367.7661 00:15:21 Yes
52 EscapeULoft - CO 2246-AU22-RILA SLT H 1 1 11:32:54.74 367.3376 00:15:25 Yes
53 Kehl & Morrison - PA 0265-AU22-WING BB H 1 1 11:32:54.82 367.3273 00:15:25 Yes
54 D & M Loft - ID 1204-AU22-IDA BB H 1 1 11:33:08.78 365.5522 00:15:39 Yes
55 3 Stars & A Sun - TX 0433-AU22-3STA BB H 1 1 11:33:49.17 360.5117 00:16:19 Yes
56 New Year Loft - PA 2279-AU22-NEWY Special Addition BB C 1 2 11:34:12.85 357.6206 00:16:43 Yes
57 Sandoval Speed Test - CA 33956-AU22-JEDD BB H 1 2 11:34:29.57 355.6070 00:17:00 Yes
58 Gardocky Team - CA 1028-AU22-FMT BB H 1 2 11:34:44.59 353.8174 00:17:15 Yes
59 Birdhigh Loft - CA 8842-AU22-JEDD BBSP H 1 1 11:34:48.80 353.3191 00:17:19 Yes
60 Racing Pigeon Mall - WA 0291-AU22-RPM BLK H 1 1 11:34:49.23 353.2682 00:17:19 Yes
61 Maestas Family Loft - NM 22979-AU22-NMRP BBSP H 1 1 11:34:50.78 353.0851 00:17:21 Yes
62 Chen Dong Loft - NY 0045-AU22-DJT BCSP H 1 2 11:34:52.92 352.8327 00:17:23 Yes
63 Gina's Loft - ID 22824-AU22-RMR BC H 1 3 11:35:00.07 351.9918 00:17:30 Yes
64 Radd - OK 5752-AU22-ARPU 1906/41065 Re 3 BC H 1 3 11:35:04.97 351.4178 00:17:35 Yes
65 Mike Beam - KS 2835-AU22-TOP CC H 1 2 11:35:18.24 349.8728 00:17:48 Yes
66 Circle C Lofts - UT 0164-AU22-ROGU 19651 269 BB H 1 1 11:35:22.41 349.3901 00:17:52 Yes
67 Samurai - UT 2746-AU22-WFA DC H 1 2 11:36:00.04 345.0935 00:18:30 Yes
68 Apple Cup - WA 0556-AU22-YAK BB H 1 1 11:36:06.58 344.3576 00:18:37 Yes
69 Spring Break Race - UT 37247-AU22-FOYS BB H 1 2 11:36:07.94 344.2049 00:18:38 Yes
70 Hollywood Lou Loft - FL 0911-AU22-CCIF BBPD H 1 2 11:36:23.60 342.4569 00:18:54 Yes
71 Lou Pendleton - CO 22523-AU22-FH BC H 1 1 11:36:37.85 340.8816 00:19:08 Yes
72 Rory Smith - UT 2445-AU22-CDR BC H 1 1 11:36:52.14 339.3164 00:19:22 Yes
73 PNWC - ID 0069-IF22-PNWC “PAIR 30” BC H 1 1 11:36:54.92 339.0135 00:19:25 Yes
74 Larry Jensen - IA 0623-AU22-SCIA BB H 1 1 11:37:49.38 333.1882 00:20:19 Yes
75 Marathon Masters - WI 8934-AU22-VK BB H 1 1 11:37:55.13 332.5848 00:20:25 Yes
76 Jimmyzheng Loft - MS 2298-AU22-JIMM BBWF H 1 1 11:38:04.05 331.6531 00:20:34 Yes
77 Kehl & Morrison - PA 3801-AU22-WGS DC H 1 2 11:38:10.34 330.9992 00:20:40 Yes
78 Circle C Lofts - UT 0173-AU22-ROGU 6228673 364 BBSP H 1 2 11:38:21.73 329.8217 00:20:52 Yes
79 New Year Loft - PA 1730-IF22-GPC Flub A Dub BC H 1 3 11:38:42.55 327.6908 00:21:13 Yes
80 Apple Cup - WA 0546-AU22-YAK BBWF H 1 2 11:39:06.25 325.2984 00:21:36 Yes
81 Utley Lofts - ID 1019-AU22-IDA BC H 1 1 11:39:52.94 320.6861 00:22:23 Yes
82 Reno team 20 - NV 20355-AU22-JEDD BC H 1 2 11:39:57.83 320.2106 00:22:28 Yes
83 Chick Clayton - ID 0201-AU22-IDA BC H 1 1 11:40:00.19 319.9816 00:22:30 Yes
84 2nd Chance Loft - ID 22833-AU22-RMR BBSP H 1 2 11:40:10.15 319.0188 00:22:40 Yes
85 Racing Pigeon Mall - WA 7367-AU22-STIL DC H 1 2 11:40:11.75 318.8646 00:22:42 Yes
86 Birdhigh Loft - CA 8837-AU22-JEDD BCSP H 1 2 11:40:13.57 318.6895 00:22:44 Yes
87 Bob Hilltop Family Loft - ADS - NJ 0095-AU22-ADS BB H 1 2 11:40:25.93 317.5052 00:22:56 Yes
88 David Miller - UT 0051-AU22-ROGU BB H 1 1 11:40:40.97 316.0759 00:23:11 Yes
89 EscapeULoft - CO 2232-AU22-ZEPH BB H 1 2 11:40:43.56 315.8310 00:23:14 Yes
90 Gina's Loft - ID 22844-AU22-RMR BC H 1 4 11:40:56.25 314.6369 00:23:26 Yes
91 Marian Taloi - OR 49316-AU22-JEDD BBSP H 1 1 11:41:03.30 313.9773 00:23:33 Yes
92 TBBL of Houston TX - TX 95762-AU22-ARPU Perfect Imperfection BBSP H 1 1 11:41:37.13 310.8506 00:24:07 Yes
93 Wartick Family Loft - KS 99848-AU22-ARPU BB H 1 1 11:41:39.05 310.6750 00:24:09 Yes
94 Gina's Loft - ID 22831-AU22-RMR BCSP H 1 5 11:41:39.67 310.6184 00:24:10 Yes
95 David Sandeen - PA 4220-AU22-ERIE DCWF H 1 1 11:41:42.00 310.4056 00:24:12 Yes
96 Glen Weaver Loft - OK 53382-AU22-ARPU BB H 1 1 11:42:06.19 308.2141 00:24:36 Yes
97 5 Old Men Syndicate - CA 2236-AU22-PIRT 50441 & 663 BC H 1 1 11:42:16.47 307.2921 00:24:47 Yes
98 Liz Fauxcahontas - OR 0147-AU22-DRCO BC H 1 2 11:42:28.30 306.2379 00:24:58 Yes
99 Marathon Masters - WI 8928-AU22-VK BB H 1 2 11:42:29.96 306.0905 00:25:00 Yes
100 Birdhigh Loft - CA 8850-AU22-JEDD BB H 1 3 11:42:42.31 304.9987 00:25:12 Yes

There are 501 bird records

Note: These Race Results are unofficial and subject to change until verified by the Race Committee and declared final.